| time (UTC) | temp F | wind direction | speed MPH | gust MPH | rain 1hr in | rain 24hr in | rain mn in | humidity % | barometer mb |
| 20260901141504 | 79 | 214 | 0.0 | 2.0 | 0.00 | 0.18 | 0.00 | 85 | 1016.0 |
| 20260901140027 | 78 | 229 | 0.0 | 3.0 | 0.00 | 0.18 | 0.00 | 86 | 1015.8 |
| 20260901134518 | 77 | 207 | 0.0 | 2.0 | 0.00 | 0.20 | 0.00 | 88 | 1015.9 |
| 20260901133014 | 76 | 260 | 0.0 | 2.0 | 0.00 | 0.21 | 0.00 | 90 | 1016.0 |
| 20260901131511 | 76 | 235 | 0.0 | 1.0 | 0.00 | 0.21 | 0.00 | 92 | 1016.1 |
| 20260901130018 | 75 | 280 | 0.0 | 1.0 | 0.00 | 0.22 | 0.00 | 91 | 1016.2 |
| 20260901124532 | 75 | 247 | 0.0 | 2.0 | 0.00 | 0.27 | 0.00 | 92 | 1016.3 |
| 20260901123025 | 75 | 240 | 0.0 | 2.0 | 0.00 | 0.29 | 0.00 | 92 | 1016.1 |
| 20260901121521 | 74 | 313 | 0.0 | 1.0 | 0.00 | 0.29 | 0.00 | 93 | 1016.0 |
| 20260901120020 | 74 | 329 | 0.0 | 0.0 | 0.00 | 0.29 | 0.00 | 92 | 1015.6 |
| 20260901114510 | 74 | 235 | 0.0 | 2.0 | 0.00 | 0.29 | 0.00 | 92 | 1015.5 |
| 20260901113017 | 74 | 230 | 0.0 | 0.0 | 0.00 | 0.29 | 0.00 | 92 | 1015.4 |
| 20260901111531 | 74 | 230 | 0.0 | 0.0 | 0.00 | 0.29 | 0.00 | 91 | 1015.1 |
| 20260901110026 | 75 | 230 | 0.0 | 0.0 | 0.00 | 0.29 | 0.00 | 91 | 1015.0 |
| 20260901104526 | 75 | 230 | 0.0 | 0.0 | 0.00 | 0.29 | 0.00 | 90 | 1015.1 |
| 20260901103023 | 75 | 230 | 0.0 | 0.0 | 0.00 | 0.29 | 0.00 | 90 | 1015.1 |
| 20260901101535 | 76 | 230 | 0.0 | 0.0 | 0.00 | 0.29 | 0.00 | 89 | 1014.9 |
| 20260901100013 | 76 | 230 | 0.0 | 1.0 | 0.00 | 0.29 | 0.00 | 88 | 1015.0 |
| 20260901094539 | 76 | 266 | 0.0 | 1.0 | 0.00 | 0.29 | 0.00 | 88 | 1015.0 |
| 20260901093030 | 76 | 232 | 0.0 | 2.0 | 0.00 | 0.29 | 0.00 | 88 | 1014.8 |
| 20260901091545 | 76 | 221 | 0.0 | 2.0 | 0.00 | 0.29 | 0.00 | 87 | 1014.9 |
| 20260901090023 | 76 | 343 | 0.0 | 2.0 | 0.00 | 0.29 | 0.00 | 88 | 1014.7 |
| 20260901084533 | 76 | 209 | 0.0 | 1.0 | 0.00 | 0.29 | 0.00 | 88 | 1014.6 |
| 20260901083011 | 76 | 256 | 0.0 | 1.0 | 0.00 | 0.29 | 0.00 | 88 | 1014.7 |
| 20260901081535 | 76 | 209 | 0.0 | 2.0 | 0.00 | 0.29 | 0.00 | 89 | 1014.7 |
| 20260901080112 | 76 | 238 | 0.0 | 2.0 | 0.00 | 0.29 | 0.00 | 89 | 1014.6 |
| 20260901074529 | 75 | 238 | 0.0 | 2.0 | 0.00 | 0.29 | 0.00 | 90 | 1014.7 |
| 20260901073025 | 75 | 229 | 0.0 | 2.0 | 0.00 | 0.29 | 0.00 | 91 | 1014.7 |
| 20260901071521 | 75 | 247 | 0.0 | 3.0 | 0.00 | 0.29 | 0.00 | 92 | 1014.6 |
| 20260901070027 | 75 | 212 | 0.0 | 1.0 | 0.00 | 0.29 | 0.00 | 92 | 1014.6 |
| 20260901064534 | 74 | 212 | 0.0 | 1.0 | 0.00 | 0.29 | 0.00 | 92 | 1014.6 |
| 20260901063036 | 75 | 212 | 0.0 | 0.0 | 0.00 | 0.29 | 0.00 | 92 | 1014.4 |
| 20260901061532 | 75 | 212 | 0.0 | 0.0 | 0.00 | 0.29 | 0.00 | 92 | 1014.4 |
| 20260901060029 | 75 | 212 | 0.0 | 0.0 | 0.00 | 0.29 | 0.00 | 92 | 1014.5 |
| 20260901054525 | 75 | 212 | 0.0 | 0.0 | 0.00 | 0.29 | 0.00 | 92 | 1014.5 |
| 20260901053031 | 75 | 212 | 0.0 | 1.0 | 0.00 | 0.29 | 0.00 | 92 | 1014.5 |
| 20260901051516 | 75 | 212 | 0.0 | 1.0 | 0.00 | 0.29 | 0.00 | 92 | 1014.5 |
| 20260901050012 | 75 | 200 | 0.0 | 2.0 | 0.00 | 0.29 | 0.00 | 93 | 1014.5 |
| 20260901044509 | 75 | 200 | 0.0 | 2.0 | 0.00 | 0.29 | 0.29 | 94 | 1014.6 |
| 20260901043015 | 75 | 247 | 0.0 | 1.0 | 0.00 | 0.29 | 0.29 | 94 | 1014.6 |
| 20260901041533 | 75 | 223 | 0.0 | 1.0 | 0.00 | 0.29 | 0.29 | 94 | 1014.7 |
| 20260901040025 | 75 | 223 | 0.0 | 1.0 | 0.00 | 0.29 | 0.29 | 94 | 1014.8 |
| 20260901034522 | 75 | 223 | 0.0 | 1.0 | 0.00 | 0.29 | 0.29 | 94 | 1014.7 |
| 20260901033017 | 75 | 223 | 0.0 | 0.0 | 0.00 | 0.29 | 0.29 | 94 | 1014.8 |
| 20260901031511 | 75 | 223 | 0.0 | 0.0 | 0.00 | 0.29 | 0.29 | 94 | 1014.8 |
| 20260901030007 | 76 | 223 | 0.0 | 0.0 | 0.00 | 0.29 | 0.29 | 94 | 1014.7 |
| 20260901024534 | 75 | 223 | 0.0 | 0.0 | 0.00 | 0.30 | 0.29 | 94 | 1014.8 |
| 20260901023028 | 75 | 223 | 0.0 | 0.0 | 0.00 | 0.31 | 0.29 | 93 | 1015.1 |
| 20260901021529 | 75 | 223 | 0.0 | 0.0 | 0.00 | 0.31 | 0.29 | 93 | 1015.2 |
| 20260901020016 | 76 | 223 | 0.0 | 0.0 | 0.00 | 0.31 | 0.29 | 93 | 1014.9 |
| 20260901014514 | 76 | 223 | 0.0 | 0.0 | 0.00 | 0.31 | 0.29 | 93 | 1014.6 |
| 20260901013010 | 76 | 223 | 0.0 | 0.0 | 0.00 | 0.31 | 0.29 | 93 | 1014.7 |
| 20260901011532 | 76 | 223 | 0.0 | 0.0 | 0.00 | 0.31 | 0.29 | 92 | 1014.5 |
| 20260901010035 | 77 | 223 | 0.0 | 0.0 | 0.00 | 0.31 | 0.29 | 92 | 1014.6 |
| 20260901004527 | 77 | 223 | 0.0 | 0.0 | 0.00 | 0.31 | 0.29 | 92 | 1014.6 |
| 20260901003021 | 78 | 223 | 0.0 | 0.0 | 0.00 | 0.31 | 0.29 | 92 | 1014.6 |
| 20260901001514 | 78 | 283 | 0.0 | 1.0 | 0.00 | 0.31 | 0.29 | 92 | 1014.5 |
| 20260901000018 | 78 | 283 | 0.0 | 0.0 | 0.00 | 0.31 | 0.29 | 92 | 1014.2 |
| 20260831234534 | 78 | 283 | 0.0 | 1.0 | 0.00 | 0.32 | 0.29 | 91 | 1013.5 |
| 20260831233030 | 79 | 283 | 0.0 | 0.0 | 0.01 | 0.32 | 0.29 | 91 | 1014.4 |
| 20260831231547 | 80 | 283 | 0.0 | 0.0 | 0.10 | 0.32 | 0.29 | 91 | 1014.9 |
| 20260831230030 | 80 | 283 | 0.0 | 0.0 | 0.10 | 0.32 | 0.29 | 90 | 1014.2 |
| 20260831224543 | 81 | 283 | 0.0 | 0.0 | 0.10 | 0.33 | 0.29 | 88 | 1014.2 |
| 20260831223033 | 81 | 283 | 0.0 | 0.0 | 0.09 | 0.32 | 0.28 | 85 | 1014.1 |
| 20260831221544 | 83 | 282 | 0.0 | 0.0 | 0.00 | 0.23 | 0.19 | 83 | 1014.3 |
| 20260831220031 | 84 | 282 | 0.0 | 0.0 | 0.00 | 0.23 | 0.19 | 80 | 1013.9 |
| 20260831214536 | 84 | 299 | 0.0 | 2.0 | 0.00 | 0.24 | 0.19 | 76 | 1013.6 |
| 20260831213028 | 86 | 209 | 0.0 | 2.0 | 0.00 | 0.24 | 0.19 | 76 | 1013.6 |
| 20260831211518 | 87 | 244 | 0.0 | 4.0 | 0.00 | 0.24 | 0.19 | 69 | 1013.8 |
| 20260831210035 | 86 | 242 | 0.0 | 8.0 | 0.01 | 0.24 | 0.19 | 74 | 1013.8 |
| 20260831204537 | 85 | 348 | 0.0 | 4.0 | 0.01 | 0.24 | 0.19 | 76 | 1014.1 |
| 20260831203037 | 85 | 182 | 0.0 | 1.0 | 0.02 | 0.24 | 0.19 | 82 | 1014.4 |
| 20260831201508 | 85 | 178 | 0.0 | 1.0 | 0.02 | 0.24 | 0.19 | 74 | 1014.5 |
| 20260831200004 | 84 | 301 | 0.0 | 0.0 | 0.01 | 0.24 | 0.18 | 81 | 1014.1 |
| 20260831194518 | 86 | 301 | 0.0 | 2.0 | 0.01 | 0.26 | 0.18 | 73 | 1014.2 |
| 20260831193019 | 87 | 200 | 0.0 | 4.0 | 0.00 | 0.26 | 0.17 | 63 | 1014.3 |
| 20260831191535 | 88 | 250 | 0.0 | 7.0 | 0.00 | 0.26 | 0.17 | 63 | 1014.3 |
| 20260831190012 | 87 | 229 | 1.0 | 6.0 | 0.00 | 0.26 | 0.17 | 62 | 1014.5 |
| 20260831184509 | 87 | 215 | 2.0 | 4.0 | 0.00 | 0.26 | 0.17 | 60 | 1014.6 |
| 20260831183004 | 87 | 188 | 2.0 | 6.0 | 0.00 | 0.26 | 0.17 | 62 | 1014.5 |
| 20260831181524 | 85 | 238 | 1.0 | 5.0 | 0.00 | 0.26 | 0.17 | 67 | 1014.5 |
| 20260831180023 | 83 | 227 | 0.0 | 6.0 | 0.00 | 0.26 | 0.17 | 70 | 1014.6 |
| 20260831174516 | 81 | 245 | 2.0 | 7.0 | 0.00 | 0.26 | 0.17 | 71 | 1014.8 |
| 20260831173012 | 80 | 198 | 1.0 | 9.0 | 0.00 | 0.26 | 0.17 | 74 | 1015.0 |
| 20260831171510 | 78 | 256 | 1.0 | 6.0 | 0.00 | 0.26 | 0.17 | 78 | 1015.1 |
| 20260831170026 | 76 | 211 | 1.0 | 6.0 | 0.00 | 0.26 | 0.17 | 82 | 1015.5 |
| 20260831164526 | 75 | 188 | 1.0 | 6.0 | 0.00 | 0.26 | 0.17 | 85 | 1015.7 |
| 20260831163035 | 73 | 213 | 0.0 | 5.0 | 0.00 | 0.26 | 0.17 | 90 | 1015.8 |
| 20260831161525 | 72 | 198 | 0.0 | 3.0 | 0.00 | 0.26 | 0.17 | 92 | 1015.9 |
| 20260831160026 | 71 | 85 | 0.0 | 4.0 | 0.00 | 0.26 | 0.17 | 93 | 1015.9 |
| 20260831154602 | 70 | 289 | 0.0 | 3.0 | 0.00 | 0.26 | 0.17 | 93 | 1016.0 |
| 20260831153028 | 70 | 113 | 0.0 | 2.0 | 0.01 | 0.26 | 0.17 | 93 | 1016.0 |
| 20260831151534 | 70 | 194 | 0.0 | 1.0 | 0.06 | 0.26 | 0.17 | 93 | 1016.1 |
| 20260831150028 | 70 | 194 | 0.0 | 1.0 | 0.06 | 0.26 | 0.17 | 93 | 1016.2 |
| 20260831144528 | 69 | 195 | 0.0 | 2.0 | 0.08 | 0.26 | 0.17 | 93 | 1016.2 |
| 20260831143019 | 69 | 132 | 0.0 | 1.0 | 0.08 | 0.25 | 0.16 | 92 | 1015.9 |